User: anonymous   Login
Location: Newark
(54.6833°N, 25.2833°E)
Time: 00:59:46
(UTC+00:00)
Language:

Envisat - Orbit

View from above orbital plane
View from above orbital plane
View from above satellite
View from above satellite

Ground track
Ground track

The orbit data is extracted from the following two-line orbital elements,

1 27386U 02009A   21164.78122646 -.00000004  00000-0  12264-4 0  9991
2 27386  98.1483 159.0261 0001264  89.9691  83.4018 14.38029387 10549
Epoch (UTC): 13 June 2021 18:44:57
Eccentricity: 0.0001264
inclination: 98.1483°
perigee height: 764 km
apogee height: 766 km
right ascension of ascending node: 159.0261°
argument of perigee: 89.9691°
revolutions per day: 14.38029387
mean anomaly at epoch: 83.4018°
orbit number at epoch: 1054

The dashed part of the orbit path shows where the satellite is in the earth's shadow,  

DLR